This is the latest recevied weather packets stored in our database for station/object AE5HO. If no packets are shown the sender has not sent any weather packets the latest 10 day(s).
| Time | Temp. | Humidity | Pressure | Rain* | Wind** | Luminosity | Snow |
|---|---|---|---|---|---|---|---|
| 1787882848 | 33.89° C | 42% | 1014.5 hPa | 0 mm | - | 0 W/m² | - |
| 1787882545 | 33.89° C | 42% | 1014.7 hPa | 0 mm | - | 0 W/m² | - |
| 1787882241 | 34.44° C | 42% | 1014.8 hPa | 0 mm | - | 0 W/m² | - |
| 1787881940 | 34.44° C | 42% | 1014.6 hPa | 0 mm | - | 0 W/m² | - |
| 1787881635 | 34.44° C | 42% | 1014.8 hPa | 0 mm | - | 0 W/m² | - |
| 1787881331 | 34.44° C | 42% | 1014.6 hPa | 0 mm | - | 0 W/m² | - |
| 1787881027 | 34.44° C | 42% | 1014.5 hPa | 0 mm | - | 0 W/m² | - |
| 1787880722 | 34.44° C | 43% | 1014.2 hPa | 0 mm | - | 0 W/m² | - |
| 1787880420 | 34.44° C | 43% | 1014.1 hPa | 0 mm | - | 0 W/m² | - |
| 1787880114 | 34.44° C | 43% | 1014 hPa | 0 mm | - | 0 W/m² | - |
| 1787879809 | 34.44° C | 43% | 1014.2 hPa | 0 mm | - | 0 W/m² | - |
| 1787879505 | 34.44° C | 43% | 1014 hPa | 0 mm | - | 0 W/m² | - |
| 1787879200 | 34.44° C | 42% | 1013.9 hPa | 0 mm | - | 0 W/m² | - |
| 1787878898 | 34.44° C | 42% | 1013.7 hPa | 0 mm | - | 0 W/m² | - |
| 1787878596 | 35° C | 42% | 1013.6 hPa | 0 mm | - | 0 W/m² | - |
| 1787878291 | 35° C | 41% | 1013.7 hPa | 0 mm | - | 0 W/m² | - |
| 1787877987 | 35° C | 41% | 1013.5 hPa | 0 mm | - | 1 W/m² | - |
| 1787877682 | 35° C | 41% | 1013.5 hPa | 0 mm | - | 4 W/m² | - |
| 1787877378 | 35.56° C | 42% | 1013.6 hPa | 0 mm | - | 6 W/m² | - |
| 1787877074 | 35.56° C | 42% | 1013.3 hPa | 0 mm | - | 10 W/m² | - |
| 1787876769 | 35.56° C | 42% | 1013.5 hPa | 0 mm | - | 15 W/m² | - |
| 1787876468 | 35.56° C | 41% | 1013.6 hPa | 0 mm | - | 17 W/m² | - |
| 1787876167 | 35.56° C | 41% | 1013.4 hPa | 0 mm | - | 16 W/m² | - |
| 1787875862 | 35.56° C | 41% | 1013.4 hPa | 0 mm | - | 17 W/m² | - |
| 1787875562 | 35.56° C | 41% | 1013.7 hPa | 0 mm | - | 17 W/m² | - |
* Rain latest hour (hover to see other rain measurements)
** Current wind speed in m/s (hover to see current wind gust speed)